[[{"header":{"parameterUnit":"m.s-1","parameterCategory":1,"la1":30.2992,"la2":30.254,"lo1":-89.0895,"lo2":-89.0443,"dy":0.0025,"dx":0.0025,"nx":19,"ny":19,"refTime":"2026-04-16T09:00:00:Z","depth":0,"parameterNumber":2,"parameterNumberName":"U-component_of_WINDS"},"data":[0,0,0,1.7098,1.7099,1.7141,1.7141,1.72,1.7201,0,0,0,0,0,0,0,0,0,0,0,1.709,1.7091,1.7098,1.7099,1.7141,1.7141,1.72,1.7201,0,0,0,0,0,0,0,0,0,0,0,1.709,1.7091,1.7092,1.7099,1.7141,1.7141,1.72,1.7166,0,0,0,0,0,0,0,0,0,0,1.7124,1.7123,1.7091,1.7092,1.7099,1.714,1.7141,1.7164,1.7168,1.7184,0,1.7201,0,1.7202,1.7205,1.7205,0,0,0,1.7095,1.712,1.7126,1.7092,1.71,1.714,1.7121,1.7166,1.7171,1.7189,1.7202,1.7204,1.7203,1.7205,1.7206,1.7311,1.7311,0,0,1.7093,1.7101,1.7123,1.7129,1.7125,1.7119,1.7122,1.7169,1.7183,1.7202,1.7205,1.7204,1.7206,1.7206,1.731,1.7311,0,0,0,1.7089,1.7099,1.7105,1.7127,1.7134,1.7121,1.7124,1.718,1.7181,1.7205,1.7204,1.7206,1.7207,1.7309,1.731,1.735,0,0,0,1.7087,1.7097,1.7104,1.7109,1.7134,1.7158,1.7135,1.7178,1.7183,1.7204,1.7206,1.7208,1.7309,1.731,1.7347,1.7367,0,0,0,1.7086,1.7097,1.7105,1.7109,1.7128,1.7157,1.7161,1.7179,1.7183,1.7205,1.7208,1.7308,1.731,1.7345,1.7363,1.7394,0,0,0,1.7087,1.7141,1.7105,1.7164,1.7127,1.7182,1.716,1.7201,1.7225,1.7207,1.7309,1.731,1.7344,1.736,1.7392,1.7421,1.7435,0,0,1.7159,1.715,1.7184,1.7153,1.7216,1.7175,1.7242,1.7258,1.7253,1.7291,1.7294,1.7348,1.7363,1.7394,1.7511,1.7521,0,0,0,1.7209,1.7234,1.7248,1.7271,1.7283,1.7294,1.7298,1.7302,1.7334,1.7275,1.7369,1.7377,1.7395,1.7408,1.7418,1.7431,1.7318,1.7317,1.7317,1.7323,1.7312,1.7366,1.736,1.7382,1.7383,1.74,1.7406,1.7391,1.7413,1.7424,1.7496,1.7512,1.7519,1.7533,1.744,1.744,1.7441,1.7441,1.7426,1.7457,1.7432,1.7476,1.7463,1.7499,1.7502,1.7489,1.7519,1.7488,1.7503,1.7468,1.7531,1.7543,1.7444,1.7443,1.7443,1.7442,1.7442,1.7498,1.751,1.7515,1.7543,1.7567,1.7558,1.7587,1.7576,1.7565,1.7581,1.7589,1.7588,1.7584,1.7586,1.7586,1.7586,1.7586,1.7586,1.7587,1.757,1.7573,1.7599,1.7614,1.7624,1.7637,1.7637,1.7647,1.7655,1.7644,1.7644,1.7624,1.754,1.7518,1.759,1.759,1.7589,1.7589,1.7589,1.7675,1.7648,1.7689,1.77,1.7713,1.7735,1.7719,1.774,1.7747,1.7761,1.7737,1.7678,1.7667,1.766,1.7641,1.7741,1.7741,1.7741,1.7741,1.7734,1.7727,1.7763,1.778,1.7796,1.7785,1.7828,1.7826,1.7821,1.7824,1.7808,1.7783,1.7776,1.777,1.776,1.7742,1.7865,1.7866,1.7866,1.7796,1.779,1.783,1.7823,1.7832,1.7839,1.7878,1.7897,1.7886,1.787,1.7825,1.782,1.7779,1.7767,1.775,1.7735,1.7702,0,0]},{"header":{"parameterUnit":"m.s-1","parameterCategory":1,"la1":30.2992,"la2":30.254,"lo1":-89.0895,"lo2":-89.0443,"dy":0.0025,"dx":0.0025,"nx":19,"ny":19,"refTime":"2026-04-16T09:00:00:Z","depth":0,"parameterNumber":3,"parameterNumberName":"V-component_of_WINDS"},"data":[0,0,0,2.4004,2.4007,2.4127,2.4127,2.4275,2.4276,0,0,0,0,0,0,0,0,0,0,0,2.3968,2.3969,2.4004,2.4007,2.4127,2.4127,2.4275,2.4276,0,0,0,0,0,0,0,0,0,0,0,2.3968,2.3969,2.397,2.4008,2.4127,2.4127,2.4275,2.4185,0,0,0,0,0,0,0,0,0,0,2.407,2.4037,2.3969,2.397,2.4008,2.4127,2.4128,2.4181,2.4191,2.4219,0,2.4247,0,2.4264,2.4286,2.4287,0,0,0,2.4007,2.4029,2.4062,2.3971,2.4009,2.4127,2.4073,2.4187,2.4198,2.4232,2.4249,2.4255,2.4267,2.4287,2.4288,2.4457,2.4458,0,0,2.4,2.3989,2.4054,2.4069,2.4053,2.4069,2.4076,2.4193,2.421,2.425,2.4258,2.4269,2.4288,2.4289,2.4457,2.4457,0,0,0,2.3981,2.3985,2.4015,2.4063,2.4085,2.4072,2.4081,2.4205,2.4216,2.426,2.4271,2.4289,2.4291,2.4456,2.4457,2.4486,0,0,0,2.3977,2.3974,2.4012,2.4006,2.4083,2.4147,2.409,2.4208,2.4221,2.427,2.4289,2.4292,2.4455,2.4456,2.4484,2.4502,0,0,0,2.3961,2.3972,2.3989,2.4005,2.4057,2.4145,2.4163,2.4211,2.4228,2.4287,2.4293,2.4454,2.4456,2.4481,2.4498,2.4542,0,0,0,2.3939,2.4014,2.3989,2.4077,2.4056,2.4164,2.4162,2.4243,2.4297,2.429,2.4455,2.4457,2.4481,2.4496,2.454,2.4578,2.4593,0,0,2.4027,2.4024,2.4076,2.4058,2.4167,2.4146,2.4259,2.4318,2.4332,2.4414,2.4418,2.4485,2.4498,2.4542,2.4682,2.4694,0,0,0,2.41,2.4137,2.4168,2.422,2.4268,2.4309,2.4353,2.4374,2.4444,2.4373,2.4513,2.4521,2.4548,2.4566,2.4576,2.4599,2.4465,2.4465,2.4465,2.4209,2.4224,2.431,2.434,2.4389,2.4433,2.4473,2.4509,2.451,2.4542,2.4566,2.465,2.4671,2.4679,2.4702,2.4588,2.4588,2.4588,2.4588,2.4338,2.4392,2.4391,2.4474,2.4489,2.4558,2.4601,2.4598,2.4663,2.4633,2.4657,2.4623,2.4691,2.4712,2.4591,2.459,2.459,2.459,2.459,2.441,2.4439,2.4465,2.454,2.4595,2.4621,2.4683,2.4694,2.4704,2.4728,2.4753,2.4753,2.4752,2.4739,2.4739,2.474,2.474,2.474,2.474,2.4475,2.4503,2.4555,2.4611,2.4644,2.469,2.4732,2.4764,2.4802,2.4805,2.4805,2.4801,2.4696,2.4669,2.4745,2.4744,2.4743,2.4743,2.4743,2.46,2.4573,2.4654,2.4687,2.4752,2.4805,2.4818,2.4882,2.491,2.4939,2.493,2.4851,2.4848,2.484,2.4817,2.4928,2.4928,2.4928,2.4928,2.466,2.466,2.4744,2.4796,2.4849,2.4868,2.4955,2.4987,2.5016,2.5033,2.5019,2.499,2.4981,2.4983,2.4972,2.4951,2.5093,2.5093,2.5093,2.4737,2.4742,2.4816,2.4845,2.4896,2.4938,2.5019,2.5077,2.5104,2.51,2.5046,2.5039,2.4993,2.4978,2.4973,2.4955,2.4917,0,0]}]]